Change the Weather History Date:

Monday, October 14, 2013

  Actual Average (KJYM) Record (KJYM)
Temperature  
Mean Temperature 50 °F -  
Max Temperature 62 °F 61 °F 82 °F (1975)
Min Temperature 38 °F 39 °F 26 °F (1987)
Degree Days  
Heating Degree Days 15    
Moisture  
Dew Point 41 °F    
Average Humidity 75    
Maximum Humidity 99    
Minimum Humidity 42    
Precipitation  
Precipitation 0.00 in - - ()
Sea Level Pressure  
Sea Level Pressure 30.34 in    
Wind  
Wind Speed 3 mph (ENE)    
Max Wind Speed 9 mph    
Max Gust Speed 17 mph    
Visibility 9 miles    
Events      
Averages and records for this station are not official NWS values.
T = Trace of Precipitation, MM = Missing Value Source: NWS Daily Summary

Daily Weather History Graph

Daily Weather History Graph

Search for Another Location

Airport or City:

Trip Planner

Search our weather history database for the weather conditions in past years. The results will help you decide how hot, cold, wet, or windy it might be!

Date:

Astronomy

Oct. 14, 2013 Rise Set
Actual Time 7:51 AM EDT 6:59 PM EDT
Civil Twilight 7:23 AM EDT 7:27 PM EDT
Nautical Twilight 6:51 AM EDT 8:00 PM EDT
Astronomical Twilight 6:18 AM EDT 8:32 PM EDT
Moon 4:32 PM EDT (10/14) 3:03 AM EDT (10/14)
Length of Visible Light 12h 04m
Length of Day
11h 08m
Waxing Gibbous, 79% of the Moon is Illuminated
Oct 14
Waxing Gibbous
Oct 18
Full
Oct 26
Last Quarter
Nov 3
New
Nov 10
First Quarter

Hourly Weather History & Observations

Time (EDT) Temp. Windchill Dew Point Humidity Pressure Visibility Wind Dir Wind Speed Gust Speed Precip Events Conditions
12:14 AM 40.3 °F - 39.4 °F 97% 30.37 in 10.0 mi Calm Calm - N/A   Clear
12:35 AM 40.3 °F - 39.6 °F 97% 30.37 in 10.0 mi Calm Calm - N/A   Clear
12:55 AM 39.9 °F - 39.2 °F 97% 30.37 in 10.0 mi Calm Calm - N/A   Clear
1:14 AM 39.4 °F - 38.8 °F 98% 30.37 in 10.0 mi Calm Calm - N/A   Clear
1:35 AM 40.6 °F - 40.1 °F 98% 30.37 in 10.0 mi Calm Calm - N/A   Clear
1:54 AM 39.4 °F - 38.8 °F 98% 30.37 in 7.0 mi Calm Calm - N/A   Clear
2:14 AM 41.4 °F - 41.2 °F 99% 30.37 in 10.0 mi Calm Calm - N/A   Clear
2:35 AM 42.1 °F - 41.5 °F 98% 30.37 in 10.0 mi Calm Calm - N/A   Clear
2:54 AM 41.0 °F 39.0 °F 40.3 °F 97% 30.37 in 10.0 mi North 3.5 mph - N/A   Clear
3:15 AM 40.1 °F 36.9 °F 39.2 °F 97% 30.38 in 10.0 mi NNW 4.6 mph - N/A   Clear
3:34 AM 39.0 °F 36.8 °F 38.1 °F 97% 30.38 in 10.0 mi NNW 3.5 mph - N/A   Clear
3:54 AM 39.4 °F 37.2 °F 38.7 °F 97% 30.38 in 10.0 mi North 3.5 mph - N/A   Clear
4:15 AM 41.5 °F 38.6 °F 41.0 °F 98% 30.38 in 10.0 mi NE 4.6 mph - N/A   Clear
4:34 AM 42.1 °F 40.2 °F 41.4 °F 97% 30.38 in 10.0 mi NE 3.5 mph - N/A   Clear
4:55 AM 41.9 °F 39.0 °F 41.0 °F 97% 30.38 in 10.0 mi NE 4.6 mph - N/A   Clear
5:15 AM 41.9 °F 40.0 °F 41.0 °F 97% 30.38 in 10.0 mi NE 3.5 mph - N/A   Clear
5:34 AM 41.5 °F - 41.0 °F 98% 30.38 in 10.0 mi Calm Calm - N/A   Clear
5:55 AM 41.9 °F - 41.2 °F 97% 30.39 in 10.0 mi Calm Calm - N/A   Clear
6:15 AM 39.4 °F - 38.5 °F 97% 30.40 in 4.0 mi Calm Calm - N/A   Clear
6:34 AM 38.8 °F - 38.3 °F 98% 30.40 in 5.0 mi Calm Calm - N/A   Clear
6:55 AM 40.1 °F - 39.7 °F 99% 30.40 in 4.0 mi Calm Calm - N/A   Clear
7:14 AM 38.7 °F - 38.5 °F 99% 30.40 in 1.0 mi Calm Calm - N/A   Unknown
7:35 AM 40.1 °F - 39.9 °F 99% 30.40 in 7.0 mi Calm Calm - N/A   Clear
7:55 AM 40.3 °F - 39.9 °F 99% 30.40 in 5.0 mi Calm Calm - N/A   Clear
8:14 AM 41.2 °F 39.2 °F 40.8 °F 99% 30.40 in 7.0 mi ENE 3.5 mph - N/A   Clear
8:35 AM 42.6 °F 39.9 °F 42.1 °F 98% 30.40 in 10.0 mi ENE 4.6 mph - N/A   Clear
8:55 AM 44.4 °F 42.0 °F 43.7 °F 97% 30.40 in 10.0 mi ENE 4.6 mph - N/A   Clear
9:14 AM 45.3 °F 41.6 °F 43.7 °F 94% 30.41 in 10.0 mi ENE 6.9 mph - N/A   Clear
9:35 AM 47.5 °F - 44.6 °F 90% 30.41 in 10.0 mi ENE 6.9 mph - N/A   Clear
9:55 AM 49.1 °F - 44.4 °F 84% 30.41 in 10.0 mi ENE 9.2 mph - N/A   Clear
10:14 AM 50.5 °F - 43.5 °F 77% 30.41 in 10.0 mi East 9.2 mph - N/A   Clear
10:35 AM 52.5 °F - 43.3 °F 71% 30.40 in 10.0 mi ENE 9.2 mph 17.3 mph N/A   Clear
10:54 AM 53.8 °F - 43.2 °F 67% 30.40 in 10.0 mi ENE 9.2 mph - N/A   Clear
11:54 AM 57.0 °F - 41.5 °F 56% 30.38 in 10.0 mi East 9.2 mph - N/A   Clear
12:15 PM 57.7 °F - 41.4 °F 54% 30.37 in 10.0 mi East 4.6 mph - N/A   Clear
12:35 PM 58.6 °F - 41.0 °F 52% 30.36 in 10.0 mi East 6.9 mph - N/A   Clear
12:54 PM 59.4 °F - 39.7 °F 48% 30.36 in 10.0 mi ESE 5.8 mph - N/A   Clear
1:15 PM 59.2 °F - 39.6 °F 48% 30.35 in 10.0 mi ENE 4.6 mph - N/A   Clear
1:35 PM 60.3 °F - 40.3 °F 48% 30.34 in 10.0 mi ENE 5.8 mph - N/A   Clear
1:54 PM 60.4 °F - 40.1 °F 47% 30.33 in 10.0 mi Calm Calm - N/A   Clear
2:15 PM 61.0 °F - 40.8 °F 47% 30.33 in 10.0 mi NNE 4.6 mph - N/A   Clear
2:35 PM 60.8 °F - 40.3 °F 47% 30.32 in 10.0 mi Calm Calm - N/A   Clear
2:54 PM 60.6 °F - 40.3 °F 47% 30.32 in 10.0 mi Calm Calm - N/A   Clear
3:15 PM 62.2 °F - 40.8 °F 45% 30.31 in 10.0 mi NE 4.6 mph - N/A   Clear
3:35 PM 61.5 °F - 40.3 °F 46% 30.31 in 10.0 mi ENE 4.6 mph - N/A   Clear
3:54 PM 62.8 °F - 40.5 °F 44% 30.29 in 10.0 mi North 6.9 mph - N/A   Clear
4:15 PM 62.4 °F - 40.3 °F 44% 30.29 in - NE 4.6 mph - N/A   Clear
4:35 PM 62.6 °F - 40.8 °F 45% 30.29 in 10.0 mi NW 5.8 mph - N/A   Clear
4:54 PM 62.8 °F - 39.6 °F 42% 30.28 in 10.0 mi ENE 3.5 mph - N/A   Clear
5:15 PM 62.6 °F - 40.1 °F 44% 30.27 in 10.0 mi NE 6.9 mph - N/A   Clear
5:35 PM 61.9 °F - 39.6 °F 44% 30.27 in 10.0 mi ENE 4.6 mph - N/A   Clear
5:54 PM 61.7 °F - 40.3 °F 45% 30.27 in 10.0 mi ENE 4.6 mph - N/A   Clear
6:15 PM 60.8 °F - 40.6 °F 47% 30.27 in 10.0 mi ENE 6.9 mph - N/A   Clear
6:35 PM 59.0 °F - 41.7 °F 53% 30.27 in 10.0 mi ENE 4.6 mph - N/A   Clear
6:54 PM 57.0 °F - 41.7 °F 57% 30.26 in 10.0 mi ENE 5.8 mph - N/A   Clear
7:15 PM 55.8 °F - 41.9 °F 60% 30.26 in 10.0 mi East 5.8 mph - N/A   Clear
7:35 PM 54.5 °F - 42.1 °F 63% 30.25 in 10.0 mi East 5.8 mph - N/A   Clear
7:54 PM 54.5 °F - 41.9 °F 62% 30.25 in 10.0 mi East 4.6 mph - N/A   Clear
8:15 PM 53.6 °F - 41.9 °F 65% 30.25 in 10.0 mi East 5.8 mph - N/A   Clear
8:35 PM 53.2 °F - 41.9 °F 65% 30.25 in 10.0 mi East 3.5 mph - N/A   Clear
8:54 PM 51.8 °F - 42.1 °F 69% 30.25 in 10.0 mi East 4.6 mph - N/A   Clear
9:15 PM 51.1 °F - 42.1 °F 71% 30.25 in 10.0 mi Calm Calm - N/A   Clear
9:34 PM 50.4 °F - 42.1 °F 73% 30.25 in 10.0 mi ESE 3.5 mph - N/A   Clear
9:55 PM 50.5 °F - 42.4 °F 74% 30.26 in 10.0 mi ESE 4.6 mph - N/A   Clear
10:15 PM 50.0 °F - 42.4 °F 75% 30.27 in 10.0 mi SE 4.6 mph - N/A   Clear
10:34 PM 50.0 °F - 42.6 °F 76% 30.27 in 10.0 mi SE 4.6 mph - N/A   Clear
10:55 PM 49.1 °F - 42.3 °F 77% 30.27 in 10.0 mi Calm Calm - N/A   Clear
11:14 PM 48.2 °F - 42.4 °F 80% 30.25 in 10.0 mi Calm Calm - N/A   Clear
11:34 PM 48.4 °F - 42.8 °F 81% 30.25 in 10.0 mi ESE 5.8 mph - N/A   Clear
11:55 PM 48.9 °F - 43.0 °F 80% 30.24 in 10.0 mi SE 3.5 mph - N/A   Clear